Airfield :
LOGIN :

Register | Disclaimer

   EN    FR    IT 

 










Legend :    VFR   Marginal VFR   IFR   Intensive IFR   Very Intensive IFR
Visi :
Ceiling :
>= 8 km
>= 3000ft
5 to 8 km
1000 to 3000 ft
1500m to 5 km
500 to 1000 ft
800 to 1500m
200 to 500 ft
< 800m
< 200 ft
Symbols :   Thunderstorms  Fog  Heavy snow  Heavy precipitations  Wind > 20 kt
SIGMETs :     Misc.  Thunderstorms  Icing  Turbulence  Mountain Waves  Volcanic Ashes







- Airport Elevation : 1249 ft


ETSN - Neuburg AB

CURRENT METAR :
  • 172220Z 01002KT 9999 FEW050 SCT070 20/18 Q1019 BLU+

EXPIRED METARs :
  • 172120Z 35002KT 9999 FEW060 SCT220 20/18 Q1019 BLU+
  • 172020Z 28002KT 9999 FEW045 BKN220 21/19 Q1018 BLU+

TAF TAF ETSN
Valid from the 17 at 23:00 until the 18 at 08:00 UTC


172200Z 1723/1808 24005KT 9999 NSW SCT040 BKN250
PROB30 1802/1805 VRB03KT 2000 MIFG FEW040 BY ETGL
No reported NOTAMs for that airfield.



MET'MAP, your aeronautical weather chart ! - Copyright ORBIFLY December 2007 - Disclaimer

ORBIFLY MET'MAP TEAM :

Programming & Development : Alexandra Zaïnal
Concept & Development : Baudouin d'Aumeries
Co-Development & Prog : Marc-Olivier Méhu
Technical & hardware support : Manuel Goepfert

Contact : metmap@orbifly.com




SOURCES & CREDITS :

   NOAA